Home > Weather > Matamoros > Past weeks

Flag for Mexico Past Weather in Matamoros, Tamaulipas, Mexico — Yesterday and Last 2 Weeks

Now
80 °F

Clear.


Feels Like: 85 °F
Forecast: 78 / 89 °F
Wind: 6 mph from East

Location: Brownsville / South Padre Island International Airport

Current Time: Jun 1, 2016 at 12:31:11 AM

Latest Report: May 31, 2016 at 11:53 PM


Visibility: 10 mi

Pressure: 29.87 "Hg

Humidity: 81%

Dew Point: 74 °F

Location of MatamorosLocation

Past Weather in Matamoros — Graph

°F

Matamoros Temperature Yesterday

Maximum temperature yesterday: 89 °F (at 1:53 PM)
Minimum temperature yesterday: 78 °F (at 12:53 AM)
Average temperature yesterday: 83 °F

High & Low Weather Summary for the Past Weeks

 TemperatureHumidityPressure
High90 °F (May 19, 2:53 PM)100% (May 17, 2:01 AM)30.04 "Hg (May 17, 2:01 AM)
Low73 °F (May 17, 2:53 AM)50% (May 28, 4:53 PM)29.67 "Hg (May 27, 5:53 PM)
Average82 °F84%29.87 "Hg
* Reported May 16 10:53 PM — May 31 10:53 PM, Matamoros, Weather by CustomWeather, © 2016

Note: Actual official high and low records may vary slightly from our data, if they occured in-between our weather recording intervals... More about our weather records

Advertising

Matamoros Weather History for the Previous 24 Hours

Scroll right to see more
 ConditionsComfort  
Time TempWeatherWind HumidityBarometerVisibility
10:53 PM
Tue, May 31
80 °FPassing clouds.7 mph85%29.85 "Hg10 mi
9:53 PM81 °FClear.12 mph79%29.79 "Hg10 mi
8:53 PM81 °FSunny.15 mph79%29.79 "Hg10 mi
7:53 PM82 °FPassing clouds.10 mph77%29.77 "Hg10 mi
6:53 PM84 °FSunny.13 mph70%29.77 "Hg10 mi
5:53 PM85 °FPartly sunny.17 mph70%29.74 "Hg10 mi
4:53 PM86 °FBroken clouds.21 mph65%29.75 "Hg10 mi
3:53 PM88 °FBroken clouds.21 mph65%29.78 "Hg10 mi
2:53 PM89 °FScattered clouds.17 mph61%29.80 "Hg10 mi
1:53 PM89 °FScattered clouds.16 mph61%29.82 "Hg10 mi
12:53 PM87 °FScattered clouds.21 mph65%29.85 "Hg10 mi
11:53 AM87 °FBroken clouds.18 mph67%29.88 "Hg10 mi
10:53 AM84 °FScattered clouds.13 mph74%29.88 "Hg10 mi
9:53 AM85 °FPartly sunny.13 mph72%29.87 "Hg10 mi
8:53 AM83 °FSunny.17 mph77%29.87 "Hg10 mi
7:53 AM80 °FPassing clouds.8 mph90%29.87 "Hg10 mi
6:53 AM78 °FOvercast.7 mph93%29.86 "Hg10 mi
5:53 AM78 °FClear.6 mph90%29.85 "Hg10 mi
4:53 AM78 °FClear.3 mph93%29.85 "Hg10 mi
3:53 AM78 °FPartly cloudy.5 mph93%29.84 "Hg10 mi
2:53 AM78 °FClear.10 mph93%29.84 "Hg10 mi
1:53 AM78 °FClear.6 mph93%29.87 "Hg10 mi
12:53 AM78 °FClear.8 mph93%29.88 "Hg10 mi
Weather by CustomWeather, © 2016

See weather overviewHow to use our weather pages